Regional Weather Roundup
Issued by NWS

Home | Current Version | Previous Version | Text Only | Print | Product List | Glossary Off
Versions: 1 2 3 4 5 6 7 8 9 10 11 12 13 14 15 16 17 18 19 20 21 22 23 24 25 26 27 28 29 30 31 32 33 34 35 36 37 38 39 40 41 42 43 44 45 46 47 48 49 50

000
ASUS43 KFSD 301602
RWRSD

WEATHER ROUNDUP FOR SOUTH DAKOTA
NATIONAL WEATHER SERVICE SIOUX FALLS SD
1100 AM CDT SAT JUL 30 2016

NOTE: "FAIR" INDICATES FEW OR NO CLOUDS BELOW 12,000 FEET WITH NO
SIGNIFICANT WEATHER AND/OR OBSTRUCTIONS TO VISIBILITY.


SDZ001>005-009-010-012>017-301700-
NORTHWEST AND NORTH CENTRAL SOUTH DAKOTA

CITY           SKY/WX    TMP DP  RH WIND       PRES   REMARKS
BUFFALO          N/A     80  58  46 VRB6      29.86S
FAITH            N/A     77  60  55 SE13      29.91F
MOBRIDGE       SUNNY     80  61  52 S20       29.90F
$$

SDZ012>016-024>037-041>051-057-063-072>074-301700-
SOUTHWEST AND SOUTH CENTRAL SOUTH DAKOTA

CITY           SKY/WX    TMP DP  RH WIND       PRES   REMARKS
RAPID CTY ARPT SUNNY     78  56  46 SE7       29.94F
PIERRE         SUNNY     81  61  50 S20       29.91F
CUSTER         SUNNY     76  50  40 VRB6      30.07S
ELLSWORTH AFB  SUNNY     80  57  45 SE8       29.93F
PHILIP         SUNNY     78  63  59 SE9       29.91F
PINE RIDGE     MOSUNNY   79  62  56 S10       29.97S
$$

SDZ004>011-016>023-039-040-301700-
NORTHEAST SOUTH DAKOTA

CITY           SKY/WX    TMP DP  RH WIND       PRES   REMARKS
ABERDEEN       SUNNY     76  61  59 S13       29.97F
WATERTOWN      SUNNY     75  60  59 S13       30.02F
BROOKINGS      MOSUNNY   73  60  63 S8        30.03S
SISSETON         N/A     76  60  57 S9        29.99S
$$

SDZ017-020-022-023-036>040-048>070-301700-
SOUTHEAST SOUTH DAKOTA

CITY           SKY/WX    TMP DP  RH WIND       PRES   REMARKS
SIOUX FALLS    MOSUNNY   74  62  66 S9        30.03S
HURON          SUNNY     76  60  57 SE14      29.97F
CHAMBERLAIN    SUNNY     78  66  66 SE9       29.96F
MITCHELL       SUNNY     78  63  59 S13       29.98F
YANKTON        SUNNY     75  63  64 SE9       29.99F
$$

ABBREVIATIONS USED IN REMARKS
   TC - TEMPERATURE IN CELSIUS
  WCI - WIND CHILL INDEX
   HX - HEAT INDEX
  VSB - VISIBILITY




USA.gov is the U.S. government's official web portal to all federal, state and local government web resources and services.